BEL37K EBBR-FZAA

Flight info

Callsign BEL37K
Flight time N/A
Altitude 35000
Route ROUSY DCT GTQ DCT POGOL DCT LASAT DCT MOROK DCT GILIR DCT GEVEA DCT INCUS DCT BALSI DCT RETNO DCT TUPOX DCT MTG DCT DIVKO DCT JUSQO DCT FIRRA DCT SUXER DCT KAMER UR978 CSO UM2 DJA UB730 DIR UM731 FL UA403 BZ
Aircraft A333/H-DE3FGHIJ4J5M1OP2RVWXYZ/HB1D1

Departure

Time N/A
Airport Brussels Airport (EBBR)

Arrival

Time 2026-04-17 07:18
Airport Ndjili International Airport (FZAA)
Time Latitude Longitude Altitude Speed Heading
2026-04-17 06:55 -2.82030 15.36403 34910 ft 473 kts 184°
2026-04-17 06:55 -2.88628 15.35867 34914 ft 473 kts 184°
2026-04-17 06:56 -2.95186 15.35334 34907 ft 473 kts 184°
2026-04-17 06:56 -2.98443 15.35069 34662 ft 479 kts 184°
2026-04-17 06:56 -3.01784 15.34799 33858 ft 485 kts 184°
2026-04-17 06:56 -3.05178 15.34524 32730 ft 493 kts 183°
2026-04-17 06:57 -3.08619 15.34245 31757 ft 498 kts 183°
2026-04-17 06:57 -3.12091 15.33962 30874 ft 501 kts 183°
2026-04-17 06:57 -3.15558 15.33680 30118 ft 500 kts 183°
2026-04-17 06:57 -3.19012 15.33398 29372 ft 496 kts 183°
2026-04-17 06:58 -3.22443 15.33118 28687 ft 491 kts 183°
2026-04-17 06:58 -3.25816 15.32843 28024 ft 486 kts 183°
2026-04-17 06:58 -3.29169 15.32571 27310 ft 481 kts 183°
2026-04-17 06:58 -3.32471 15.32302 26302 ft 471 kts 183°
2026-04-17 06:59 -3.35690 15.32039 25511 ft 454 kts 183°
2026-04-17 06:59 -3.38765 15.31788 24987 ft 436 kts 183°
2026-04-17 06:59 -3.41769 15.31544 24430 ft 432 kts 183°
2026-04-17 06:59 -3.44723 15.31305 23872 ft 431 kts 184°
2026-04-17 07:00 -3.47712 15.31063 23276 ft 430 kts 184°
2026-04-17 07:00 -3.50681 15.30821 22666 ft 426 kts 183°
2026-04-17 07:00 -3.53624 15.30581 22116 ft 422 kts 183°
2026-04-17 07:00 -3.56448 15.30351 21586 ft 418 kts 184°
2026-04-17 07:01 -3.59327 15.30117 21045 ft 413 kts 183°
2026-04-17 07:01 -3.62185 15.29884 20492 ft 409 kts 183°
2026-04-17 07:01 -3.65010 15.29654 19972 ft 406 kts 183°
2026-04-17 07:01 -3.67810 15.29426 19445 ft 402 kts 183°
2026-04-17 07:02 -3.70587 15.29200 18915 ft 399 kts 183°
2026-04-17 07:02 -3.73346 15.28975 18393 ft 396 kts 183°
2026-04-17 07:02 -3.76081 15.28753 17815 ft 392 kts 183°
2026-04-17 07:02 -3.78784 15.28532 17283 ft 388 kts 183°
2026-04-17 07:03 -3.81462 15.28314 16765 ft 384 kts 183°
2026-04-17 07:03 -3.84117 15.28098 16249 ft 381 kts 183°
2026-04-17 07:03 -3.86743 15.27884 15745 ft 378 kts 183°
2026-04-17 07:03 -3.89367 15.27670 15231 ft 376 kts 183°
2026-04-17 07:04 -3.91962 15.27459 14719 ft 374 kts 184°
2026-04-17 07:04 -3.94548 15.27248 14211 ft 372 kts 184°
2026-04-17 07:04 -3.97119 15.27038 13695 ft 370 kts 184°
2026-04-17 07:04 -3.99677 15.26830 13137 ft 367 kts 184°
2026-04-17 07:05 -4.02196 15.26624 12831 ft 357 kts 183°
2026-04-17 07:05 -4.04624 15.26426 12638 ft 343 kts 183°
2026-04-17 07:05 -4.06965 15.26234 12450 ft 331 kts 183°
2026-04-17 07:05 -4.09222 15.26049 12250 ft 320 kts 183°
2026-04-17 07:06 -4.11381 15.25871 12065 ft 302 kts 183°
2026-04-17 07:06 -4.13417 15.25702 11704 ft 289 kts 183°
2026-04-17 07:06 -4.15411 15.25537 11115 ft 287 kts 182°
2026-04-17 07:06 -4.17370 15.25378 10579 ft 284 kts 182°
2026-04-17 07:07 -4.19314 15.25222 10233 ft 273 kts 181°
2026-04-17 07:07 -4.21137 15.25295 10028 ft 252 kts 166°
2026-04-17 07:07 -4.22714 15.25862 9765 ft 235 kts 146°
2026-04-17 07:07 -4.23950 15.26872 9365 ft 227 kts 127°
2026-04-17 07:08 -4.24767 15.28201 9085 ft 223 kts 109°
2026-04-17 07:08 -4.25127 15.29695 8818 ft 220 kts 93°
2026-04-17 07:08 -4.25180 15.31222 8545 ft 219 kts 88°
2026-04-17 07:08 -4.25167 15.32741 8291 ft 218 kts 88°
2026-04-17 07:09 -4.25150 15.34260 8032 ft 218 kts 88°
2026-04-17 07:09 -4.25139 15.35775 7766 ft 217 kts 88°
2026-04-17 07:09 -4.25132 15.37282 7497 ft 216 kts 89°
2026-04-17 07:09 -4.25128 15.38789 7234 ft 216 kts 89°
2026-04-17 07:10 -4.25126 15.40289 6949 ft 215 kts 89°
2026-04-17 07:10 -4.25124 15.41790 6691 ft 215 kts 89°
2026-04-17 07:10 -4.25120 15.43286 6465 ft 215 kts 89°
2026-04-17 07:10 -4.25110 15.44789 6163 ft 216 kts 89°
2026-04-17 07:11 -4.25096 15.46293 5819 ft 216 kts 89°
2026-04-17 07:11 -4.25079 15.47803 5502 ft 217 kts 89°
2026-04-17 07:11 -4.25059 15.49313 5170 ft 217 kts 89°
2026-04-17 07:11 -4.25039 15.50824 4836 ft 217 kts 89°
2026-04-17 07:12 -4.25015 15.52335 4494 ft 217 kts 89°
2026-04-17 07:12 -4.24989 15.53836 4157 ft 217 kts 89°
2026-04-17 07:12 -4.24959 15.55346 3820 ft 216 kts 89°
2026-04-17 07:12 -4.24923 15.56792 3562 ft 202 kts 89°
2026-04-17 07:13 -4.25035 15.58151 3511 ft 193 kts 101°
2026-04-17 07:13 -4.25424 15.59428 3501 ft 192 kts 117°
2026-04-17 07:13 -4.26328 15.60374 3489 ft 191 kts 155°
2026-04-17 07:13 -4.27624 15.60410 3494 ft 192 kts 201°
2026-04-17 07:14 -4.28716 15.59649 3500 ft 193 kts 224°
2026-04-17 07:14 -4.29517 15.58562 3501 ft 194 kts 236°
2026-04-17 07:14 -4.30234 15.57423 3499 ft 194 kts 236°
2026-04-17 07:14 -4.30966 15.56283 3380 ft 193 kts 235°
2026-04-17 07:15 -4.31671 15.55202 3148 ft 184 kts 235°
2026-04-17 07:15 -4.32355 15.54139 2907 ft 171 kts 235°
2026-04-17 07:15 -4.32986 15.53154 2684 ft 167 kts 236°
2026-04-17 07:15 -4.33613 15.52176 2452 ft 167 kts 235°
2026-04-17 07:16 -4.34240 15.51197 2255 ft 164 kts 236°
2026-04-17 07:16 -4.34826 15.50283 2051 ft 148 kts 236°
2026-04-17 07:16 -4.35361 15.49449 1875 ft 138 kts 236°
2026-04-17 07:16 -4.35877 15.48643 1721 ft 137 kts 236°
2026-04-17 07:17 -4.36394 15.47836 1538 ft 138 kts 237°
2026-04-17 07:17 -4.36904 15.47024 1376 ft 137 kts 236°
2026-04-17 07:17 -4.37944 15.45426 1034 ft 135 kts 238°
2026-04-17 07:18 -4.38383 15.44725 1013 ft 88 kts 237°
2026-04-17 07:18 -4.38572 15.44436 1014 ft 30 kts 238°
2026-04-17 07:18 -4.38683 15.44261 1014 ft 29 kts 237°
2026-04-17 07:18 -4.38776 15.44122 1012 ft 14 kts 231°
2026-04-17 07:19 -4.38858 15.44105 1012 ft 12 kts 156°
2026-04-17 07:19 -4.38897 15.44128 1012 ft 0 kts 148°
2026-04-17 07:23 -4.38898 15.44129 1012 ft 1 kts 148°
2026-04-17 07:24 -4.38908 15.44135 1012 ft 3 kts 148°
2026-04-17 07:24 -4.38919 15.44142 1012 ft 1 kts 147°
2026-04-17 07:24 -4.38934 15.44152 1012 ft 4 kts 144°
2026-04-17 07:24 -4.38946 15.44167 1012 ft 0 kts 120°
2026-04-17 07:26 -4.38948 15.44189 1012 ft 7 kts 82°
2026-04-17 07:27 -4.38922 15.44239 1012 ft 9 kts 59°
2026-04-17 07:27 -4.38884 15.44298 1013 ft 11 kts 57°
2026-04-17 07:27 -4.38836 15.44368 1013 ft 13 kts 54°
2026-04-17 07:27 -4.38787 15.44447 1013 ft 13 kts 60°
2026-04-17 07:28 -4.38745 15.44515 1013 ft 9 kts 56°
2026-04-17 07:28 -4.38720 15.44551 1013 ft 2 kts 56°
2026-04-17 07:28 -4.38709 15.44574 1013 ft 5 kts 70°
2026-04-17 07:28 -4.38709 15.44605 1013 ft 1 kts 108°
2026-04-17 07:29 -4.38712 15.44607 1013 ft 1 kts 129°
2026-04-17 07:29 -4.38722 15.44614 1013 ft 3 kts 138°
2026-04-17 07:29 -4.38732 15.44623 1012 ft 3 kts 142°
2026-04-17 07:29 -4.38743 15.44630 1012 ft 1 kts 145°
2026-04-17 07:30 -4.38745 15.44631 1012 ft 0 kts 146°